Location: ???? ????
(41.4149°N, 22.8816°E)
Time: 14:44:14
(UTC+00:00)

Cosmos 2278 - Pass Details

Date: 14 July 2020
Orbit: 838 x 854 km, 71.1° (Epoch: 04 August)

Event Time Altitude Azimuth Distance (km) Brightness Sun altitude
Rises 02:02:45 0° 327° (NNW) 3,431 7.0 -10.6°
Reaches altitude 10° 02:05:26 10° 318° (NW) 2,491 6.1 -10.3°
Maximum altitude 02:10:27 33° 256° (WSW) 1,410 4.4 -9.5°
Drops below altitude 10° 02:15:27 10° 194° (SSW) 2,473 5.7 -8.8°
Sets 02:18:06 0° 185° (S) 3,402 6.4 -8.4°
